Location: Red Rock Canyon
(36.1333°N, 115.4333°W)
Time: 07:27:41
(UTC-07:00)

ISS - Visible Passes

Search period start: 01 April 2015 00:00
Search period end: 11 April 2015 00:00
Orbit: 396 x 405 km, 51.6° (Epoch: 01 April)

Date Brightness Start Highest point End Pass type
(mag) Time Alt. Az. Time Alt. Az. Time Alt. Az.
01 Apr -0.1 03:59:48 13° E 03:59:48 13° E 04:00:14 10° E visible
01 Apr -2.4 05:32:27 20° W 05:33:53 28° SW 05:36:40 10° SSE visible
01 Apr -0.8 20:31:46 10° SSW 20:32:05 12° S 20:32:05 12° S visible
02 Apr -1.3 04:42:29 20° SE 04:42:29 20° SE 04:43:39 10° SE visible
02 Apr -1.4 19:39:34 10° SSE 19:41:14 14° SE 19:42:30 12° ESE visible
02 Apr -0.7 21:14:12 10° WSW 21:15:11 18° WSW 21:15:11 18° WSW visible
03 Apr -3.5 20:20:33 10° SW 20:23:47 78° SE 20:25:18 29° NE visible
04 Apr -2.6 19:27:19 10° SSW 19:30:18 33° SE 19:33:17 10° ENE visible
04 Apr -1.0 21:04:05 10° W 21:06:44 22° NNW 21:07:42 20° N visible
05 Apr -2.0 20:09:53 10° WSW 20:12:59 40° NW 20:16:05 10° NE visible
06 Apr -0.3 20:54:27 10° NW 20:56:08 13° NNW 20:57:44 10° N visible
07 Apr -0.7 19:59:39 10° W 20:02:11 20° NNW 20:04:43 10° NNE visible
09 Apr -0.3 19:49:58 10° NW 19:51:24 12° NNW 19:52:46 10° N visible
